Time,TemperatureF,DewpointF,PressureIn,WindDirection,WindDirectionDegrees,WindSpeedMPH,WindSpeedGustMPH,Humidity,HourlyPrecipIn,Conditions,Clouds,dailyrainin,SolarRadiationWatts/m^2,SoftwareType,DateUTC
2014-03-13 00:03:00,34.0,32.0,-100.00,NNE,15,8.0,19.0,93,0.09,,,0.87,0.000000,,2014-03-13 04:03:00,
2014-03-13 00:13:00,34.0,32.0,-100.00,NNE,15,8.0,19.0,93,0.09,,,0.87,0.000000,,2014-03-13 04:13:00,
2014-03-13 00:23:00,34.0,32.0,-100.00,NNE,15,8.0,19.0,93,0.09,,,0.87,0.000000,,2014-03-13 04:23:00,
2014-03-13 00:53:00,28.0,24.0,-100.00,NNE,22,10.0,24.0,86,0.00,,,0.87,0.000000,,2014-03-13 04:53:00,
2014-03-13 01:03:00,28.0,24.0,-100.00,NNE,22,10.0,24.0,86,0.00,,,0.87,0.000000,,2014-03-13 05:03:00,
2014-03-13 01:13:00,28.0,24.0,-100.00,NNE,22,10.0,24.0,86,0.00,,,0.87,0.000000,,2014-03-13 05:13:00,
2014-03-13 01:22:00,28.0,24.0,-100.00,NNE,22,10.0,24.0,86,0.00,,,0.87,0.000000,,2014-03-13 05:22:00,
2014-03-13 01:53:00,27.0,23.0,-100.00,NNW,346,7.0,25.0,85,0.00,,,0.87,0.000000,,2014-03-13 05:53:00,
2014-03-13 02:02:00,27.0,23.0,-100.00,NNW,346,7.0,25.0,85,0.00,,,0.87,0.000000,,2014-03-13 06:02:00,
2014-03-13 02:11:00,27.0,23.0,-100.00,NNW,346,7.0,25.0,85,0.00,,,0.87,0.000000,,2014-03-13 06:11:00,
2014-03-13 02:22:00,27.0,23.0,-100.00,NNW,346,7.0,25.0,85,0.00,,,0.87,0.000000,,2014-03-13 06:22:00,
2014-03-13 03:52:00,24.0,19.0,-100.00,North,7,8.0,25.0,81,0.00,,,0.87,0.000000,,2014-03-13 07:52:00,
2014-03-13 04:02:00,24.0,19.0,-100.00,North,7,8.0,25.0,81,0.00,,,0.87,0.000000,,2014-03-13 08:02:00,
2014-03-13 04:12:00,24.0,19.0,-100.00,North,7,8.0,25.0,81,0.00,,,0.87,0.000000,,2014-03-13 08:12:00,
2014-03-13 04:23:00,24.0,19.0,-100.00,North,7,8.0,25.0,81,0.00,,,0.87,0.000000,,2014-03-13 08:23:00,
2014-03-13 04:53:00,22.0,16.0,-100.00,NNE,12,7.0,20.0,78,0.00,,,0.87,0.000000,,2014-03-13 08:53:00,
2014-03-13 05:02:00,22.0,16.0,-100.00,NNE,12,7.0,20.0,78,0.00,,,0.87,0.000000,,2014-03-13 09:02:00,
2014-03-13 05:12:00,22.0,16.0,-100.00,NNE,12,7.0,20.0,78,0.00,,,0.87,0.000000,,2014-03-13 09:12:00,
2014-03-13 05:22:00,22.0,16.0,-100.00,NNE,12,7.0,20.0,78,0.00,,,0.87,0.000000,,2014-03-13 09:22:00,
2014-03-13 05:53:00,20.0,16.0,-100.00,North,11,7.0,19.0,84,0.00,,,0.87,0.000000,,2014-03-13 09:53:00,
2014-03-13 06:03:00,20.0,16.0,-100.00,North,11,7.0,19.0,84,0.00,,,0.87,0.000000,,2014-03-13 10:03:00,
2014-03-13 06:13:00,20.0,16.0,-100.00,North,11,7.0,19.0,84,0.00,,,0.87,0.000000,,2014-03-13 10:13:00,
2014-03-13 06:23:00,20.0,16.0,-100.00,North,11,7.0,19.0,84,0.00,,,0.87,0.000000,,2014-03-13 10:23:00,
2014-03-13 06:53:00,20.0,18.0,-100.00,NNW,344,3.0,20.0,90,0.00,,,0.87,0.000000,,2014-03-13 10:53:00,
2014-03-13 07:03:00,20.0,18.0,-100.00,NNW,344,3.0,20.0,90,0.00,,,0.87,0.000000,,2014-03-13 11:03:00,
2014-03-13 07:12:00,20.0,18.0,-100.00,NNW,344,3.0,20.0,90,0.00,,,0.87,0.000000,,2014-03-13 11:12:00,
2014-03-13 07:22:00,20.0,18.0,-100.00,NNW,344,3.0,20.0,90,0.00,,,0.87,0.000000,,2014-03-13 11:22:00,
2014-03-13 07:52:00,20.0,16.0,-100.00,NNW,341,5.0,13.0,85,0.00,,,0.87,1.000000,,2014-03-13 11:52:00,
2014-03-13 08:02:00,20.0,16.0,-100.00,NNW,341,5.0,13.0,85,0.00,,,0.87,1.000000,,2014-03-13 12:02:00,
2014-03-13 08:12:00,20.0,16.0,-100.00,NNW,341,5.0,13.0,85,0.00,,,0.87,1.000000,,2014-03-13 12:12:00,
2014-03-13 08:22:00,20.0,16.0,-100.00,NNW,341,5.0,13.0,85,0.00,,,0.87,1.000000,,2014-03-13 12:22:00,
2014-03-13 08:52:00,21.0,15.0,-100.00,NNW,328,5.0,15.0,76,0.00,,,0.86,18.000000,,2014-03-13 12:52:00,
2014-03-13 09:02:00,21.0,15.0,-100.00,NNW,328,5.0,15.0,76,0.00,,,0.86,18.000000,,2014-03-13 13:02:00,
2014-03-13 09:12:00,21.0,15.0,-100.00,NNW,328,5.0,15.0,76,0.00,,,0.86,18.000000,,2014-03-13 13:12:00,
2014-03-13 09:22:00,21.0,15.0,-100.00,NNW,328,5.0,15.0,76,0.00,,,0.86,18.000000,,2014-03-13 13:22:00,
2014-03-13 09:53:00,22.0,16.0,-100.00,NNW,327,3.0,14.0,78,0.00,,,0.86,60.000000,,2014-03-13 13:53:00,
2014-03-13 10:02:00,22.0,16.0,-100.00,NNW,327,3.0,14.0,78,0.00,,,0.86,60.000000,,2014-03-13 14:02:00,
2014-03-13 10:11:00,22.0,16.0,-100.00,NNW,327,3.0,14.0,78,0.00,,,0.86,60.000000,,2014-03-13 14:11:00,
2014-03-13 10:22:00,22.0,16.0,-100.00,NNW,327,3.0,14.0,78,0.00,,,0.86,60.000000,,2014-03-13 14:22:00,
2014-03-13 10:52:00,22.0,16.0,-100.00,NW,314,6.0,13.0,77,0.00,,,0.86,107.000000,,2014-03-13 14:52:00,
2014-03-13 11:02:00,22.0,16.0,-100.00,NW,314,6.0,13.0,77,0.00,,,0.86,107.000000,,2014-03-13 15:02:00,
2014-03-13 11:12:00,22.0,16.0,-100.00,NW,314,6.0,13.0,77,0.00,,,0.86,107.000000,,2014-03-13 15:12:00,
2014-03-13 11:22:00,22.0,16.0,-100.00,NW,314,6.0,13.0,77,0.00,,,0.86,107.000000,,2014-03-13 15:22:00,
2014-03-13 11:53:00,23.0,17.0,-100.00,North,3,5.0,19.0,76,0.00,,,0.86,161.000000,,2014-03-13 15:53:00,
2014-03-13 12:03:00,23.0,17.0,-100.00,North,3,5.0,19.0,76,0.00,,,0.86,161.000000,,2014-03-13 16:03:00,
2014-03-13 12:13:00,23.0,17.0,-100.00,North,3,5.0,19.0,76,0.00,,,0.86,161.000000,,2014-03-13 16:13:00,
2014-03-13 12:23:00,23.0,17.0,-100.00,North,3,5.0,19.0,76,0.00,,,0.86,161.000000,,2014-03-13 16:23:00,
2014-03-13 12:53:00,20.0,14.0,-100.00,North,2,6.0,14.0,78,0.00,,,0.86,163.000000,,2014-03-13 16:53:00,
2014-03-13 13:03:00,20.0,14.0,-100.00,North,2,6.0,14.0,78,0.00,,,0.86,163.000000,,2014-03-13 17:03:00,
2014-03-13 13:12:00,20.0,14.0,-100.00,North,2,6.0,14.0,78,0.00,,,0.86,163.000000,,2014-03-13 17:12:00,
2014-03-13 13:22:00,20.0,14.0,-100.00,North,2,6.0,14.0,78,0.00,,,0.86,163.000000,,2014-03-13 17:22:00,
2014-03-13 13:53:00,23.0,14.0,-100.00,WNW,290,7.0,17.0,67,0.00,,,0.86,342.000000,,2014-03-13 17:53:00,
2014-03-13 14:01:00,23.0,14.0,-100.00,WNW,290,7.0,17.0,67,0.00,,,0.86,342.000000,,2014-03-13 18:01:00,
2014-03-13 14:12:00,23.0,14.0,-100.00,WNW,290,7.0,17.0,67,0.00,,,0.86,342.000000,,2014-03-13 18:12:00,
2014-03-13 14:22:00,23.0,14.0,-100.00,WNW,290,7.0,17.0,67,0.00,,,0.86,342.000000,,2014-03-13 18:22:00,
2014-03-13 14:53:00,24.0,12.0,-100.00,WNW,293,7.0,22.0,60,0.00,,,0.82,475.000000,,2014-03-13 18:53:00,
2014-03-13 15:02:00,24.0,12.0,-100.00,WNW,293,7.0,22.0,60,0.00,,,0.82,475.000000,,2014-03-13 19:02:00,
2014-03-13 15:11:00,24.0,12.0,-100.00,WNW,293,7.0,22.0,60,0.00,,,0.82,475.000000,,2014-03-13 19:11:00,
2014-03-13 15:22:00,24.0,12.0,-100.00,WNW,293,7.0,22.0,60,0.00,,,0.82,475.000000,,2014-03-13 19:22:00,
2014-03-13 15:52:00,22.0,11.0,-100.00,NNW,328,6.0,18.0,63,0.06,,,0.81,405.000000,,2014-03-13 19:52:00,
2014-03-13 16:02:00,22.0,11.0,-100.00,NNW,328,6.0,18.0,63,0.06,,,0.81,405.000000,,2014-03-13 20:02:00,
2014-03-13 16:12:00,22.0,11.0,-100.00,NNW,328,6.0,18.0,63,0.06,,,0.81,405.000000,,2014-03-13 20:12:00,
2014-03-13 16:22:00,22.0,11.0,-100.00,NNW,328,6.0,18.0,63,0.06,,,0.81,405.000000,,2014-03-13 20:22:00,
2014-03-13 16:52:00,21.0,7.0,-100.00,NW,322,7.0,21.0,54,0.00,,,0.73,192.000000,,2014-03-13 20:52:00,
2014-03-13 17:02:00,21.0,7.0,-100.00,NW,322,7.0,21.0,54,0.00,,,0.73,192.000000,,2014-03-13 21:02:00,
2014-03-13 17:12:00,21.0,7.0,-100.00,NW,322,7.0,21.0,54,0.00,,,0.73,192.000000,,2014-03-13 21:12:00,
2014-03-13 17:22:00,21.0,7.0,-100.00,NW,322,7.0,21.0,54,0.00,,,0.73,192.000000,,2014-03-13 21:22:00,
2014-03-13 17:54:00,20.0,6.0,-100.00,North,3,7.0,20.0,54,0.00,,,0.65,150.000000,,2014-03-13 21:54:00,
2014-03-13 18:03:00,20.0,6.0,-100.00,North,3,7.0,20.0,54,0.00,,,0.65,150.000000,,2014-03-13 22:03:00,
2014-03-13 18:13:00,20.0,6.0,-100.00,North,3,7.0,20.0,54,0.00,,,0.65,150.000000,,2014-03-13 22:13:00,
2014-03-13 18:23:00,20.0,6.0,-100.00,North,3,7.0,20.0,54,0.00,,,0.65,150.000000,,2014-03-13 22:23:00,
2014-03-13 18:53:00,18.0,4.0,-100.00,NW,308,5.0,19.0,54,0.00,,,0.62,57.000000,,2014-03-13 22:53:00,
2014-03-13 19:03:00,18.0,4.0,-100.00,NW,308,5.0,19.0,54,0.00,,,0.62,57.000000,,2014-03-13 23:03:00,
2014-03-13 19:13:00,18.0,4.0,-100.00,NW,308,5.0,19.0,54,0.00,,,0.62,57.000000,,2014-03-13 23:13:00,
2014-03-13 19:22:00,18.0,4.0,-100.00,NW,308,5.0,19.0,54,0.00,,,0.62,57.000000,,2014-03-13 23:22:00,
2014-03-13 19:52:00,16.0,2.0,-100.00,North,3,5.0,14.0,52,0.00,,,0.57,3.000000,,2014-03-13 23:52:00,
2014-03-13 20:02:00,16.0,2.0,-100.00,North,3,5.0,14.0,52,0.00,,,0.57,3.000000,,2014-03-14 00:02:00,
2014-03-13 20:12:00,16.0,2.0,-100.00,North,3,5.0,14.0,52,0.00,,,0.57,3.000000,,2014-03-14 00:12:00,
2014-03-13 20:22:00,16.0,2.0,-100.00,North,3,5.0,14.0,52,0.00,,,0.57,3.000000,,2014-03-14 00:22:00,
2014-03-13 20:53:00,15.0,2.0,-100.00,WNW,298,5.0,12.0,55,0.00,,,0.43,0.000000,,2014-03-14 00:53:00,
2014-03-13 21:02:00,15.0,2.0,-100.00,WNW,298,5.0,12.0,55,0.00,,,0.43,0.000000,,2014-03-14 01:02:00,
2014-03-13 21:12:00,15.0,2.0,-100.00,WNW,298,5.0,12.0,55,0.00,,,0.43,0.000000,,2014-03-14 01:12:00,
2014-03-13 21:22:00,15.0,2.0,-100.00,WNW,298,5.0,12.0,55,0.00,,,0.43,0.000000,,2014-03-14 01:22:00,
2014-03-13 21:53:00,14.0,-1.0,-100.00,North,1,3.0,8.0,51,0.00,,,-99.99,0.000000,,2014-03-14 01:53:00,
2014-03-13 22:02:00,14.0,-1.0,-100.00,North,1,3.0,8.0,51,0.00,,,-99.99,0.000000,,2014-03-14 02:02:00,
2014-03-13 22:12:00,14.0,-1.0,-100.00,North,1,3.0,8.0,51,0.00,,,-99.99,0.000000,,2014-03-14 02:12:00,
2014-03-13 22:22:00,14.0,-1.0,-100.00,North,1,3.0,8.0,51,0.00,,,-99.99,0.000000,,2014-03-14 02:22:00,
2014-03-13 22:53:00,15.0,-2.0,-100.00,WNW,300,3.0,12.0,47,0.00,,,0.15,0.000000,,2014-03-14 02:53:00,
2014-03-13 23:02:00,15.0,-2.0,-100.00,WNW,300,3.0,12.0,47,0.00,,,0.15,0.000000,,2014-03-14 03:02:00,
2014-03-13 23:12:00,15.0,-2.0,-100.00,WNW,300,3.0,12.0,47,0.00,,,0.15,0.000000,,2014-03-14 03:12:00,
2014-03-13 23:23:00,15.0,-2.0,-100.00,WNW,300,3.0,12.0,47,0.00,,,0.15,0.000000,,2014-03-14 03:23:00,
2014-03-13 23:54:00,15.0,-2.0,-100.00,North,2,5.0,12.0,45,0.00,,,0.06,0.000000,,2014-03-14 03:54:00,